FW4663 Weather Reports


time (UTC)temp
F
wind
direction
speed
knots
gust
knots
rain 1hr
in
rain 24hr
in
rain mn
in
humidity
%
barometer
mb
20260505064508 60 156 0.0 0.9 0.00 0.00 0.00 86 1013.9
20260505063006 60 156 0.0 0.0 0.00 0.00 0.00 86 1014.1
20260505061503 60 156 0.0 0.0 0.00 0.00 0.00 85 1014.5
20260505060003 60 156 0.0 0.0 0.00 0.00 0.00 85 1014.8
20260505054500 61 156 0.0 0.0 0.00 0.00 0.00 84 1014.7
20260505053059 61 155 0.0 0.0 0.00 0.00 0.00 84 1014.6
20260505051557 61 156 0.0 0.0 0.00 0.00 0.00 82 1014.3
20260505041604 62 156 0.0 0.0 0.00 0.00 0.00 79 1014.7
20260505040053 63 156 0.0 0.0 0.00 0.00 0.00 77 1014.8
20260505034552 63 155 0.0 0.0 0.00 0.00 0.00 76 1014.9
20260505033052 63 155 0.0 1.7 0.00 0.00 0.00 76 1014.9
20260505031553 64 156 0.0 2.6 0.00 0.00 0.00 75 1015.0
20260505030101 64 156 0.9 2.6 0.00 0.00 0.00 74 1014.7
20260505024556 64 156 0.0 2.6 0.00 0.00 0.00 74 1014.9
20260505023050 64 142 0.9 2.6 0.00 0.00 0.00 73 1014.8
20260505021555 65 149 0.0 2.6 0.00 0.00 0.00 72 1014.9
20260505020058 65 143 0.9 2.6 0.00 0.00 0.00 71 1014.7
20260505014548 66 159 1.7 2.6 0.00 0.00 0.00 69 1014.5
20260505013048 67 146 0.9 4.3 0.00 0.00 0.00 67 1014.3
20260505011547 68 145 1.7 3.5 0.00 0.00 0.00 65 1014.2
20260505010105 69 147 1.7 6.1 0.00 0.00 0.00 63 1014.3
20260505004546 70 147 3.5 6.1 0.00 0.00 0.00 62 1014.3
20260505003049 70 167 3.5 7.8 0.00 0.00 0.00 60 1014.7
20260505001545 72 138 3.5 6.1 0.00 0.00 0.00 57 1014.6
20260505000051 72 145 3.5 7.0 0.00 0.00 0.00 56 1014.8
20260504234542 73 139 7.0 10.4 0.00 0.00 0.00 54 1014.7
20260504233049 74 156 4.3 8.7 0.00 0.00 0.00 54 1014.8
20260504231539 74 194 2.6 8.7 0.00 0.00 0.00 53 1015.0
20260504230051 75 153 3.5 7.8 0.00 0.00 0.00 48 1015.1
20260504224556 76 178 2.6 8.7 0.00 0.00 0.00 48 1015.2
20260504223036 76 287 3.5 10.4 0.00 0.00 0.00 46 1015.3
20260504221535 77 138 4.3 13.0 0.00 0.00 0.00 45 1015.3
20260504220034 77 132 3.5 8.7 0.00 0.00 0.00 44 1015.7
20260504214541 77 150 3.5 10.4 0.00 0.00 0.00 44 1015.7
20260504213033 77 160 2.6 9.6 0.00 0.00 0.00 42 1015.7
20260504211531 78 202 2.6 7.8 0.00 0.00 0.00 40 1015.8
20260504210029 78 199 4.3 7.8 0.00 0.00 0.00 40 1015.8
20260504204526 79 196 3.5 8.7 0.00 0.00 0.00 40 1016.2
20260504203025 78 154 1.7 7.0 0.00 0.00 0.00 41 1016.2
20260504201524 78 244 1.7 13.0 0.00 0.00 0.00 39 1016.5
20260504200022 78 171 4.3 9.6 0.00 0.00 0.00 40 1016.8
20260504194518 78 244 3.5 8.7 0.00 0.00 0.00 40 1017.1
20260504193017 77 194 4.3 9.6 0.00 0.00 0.00 41 1017.3
20260504191515 77 138 6.1 10.4 0.00 0.00 0.00 41 1017.3
20260504190015 78 159 4.3 11.3 0.00 0.00 0.00 40 1017.4
20260504184522 77 146 4.3 11.3 0.00 0.00 0.00 43 1017.5
20260504183017 78 185 5.2 10.4 0.00 0.00 0.00 41 1017.6
20260504181509 77 275 5.2 11.3 0.00 0.00 0.00 43 1017.9
20260504180006 76 185 5.2 8.7 0.00 0.00 0.00 43 1018.0
20260504174506 76 221 1.7 9.6 0.00 0.00 0.00 42 1017.9
20260504173005 77 186 7.0 13.9 0.00 0.00 0.00 42 1018.2
20260504171503 76 190 6.1 8.7 0.00 0.00 0.00 44 1018.1
20260504081502 54 279 0.0 0.0 0.00 0.00 0.00 91 1018.2